DECAYED

CZ-6A DEB, 60973 (Decayed)

Orbit data source: Space-Track

CZ-6A DEB, 60973 was space debris in LEO originally from a launch on Tue, 06 Aug 2024 UTC launched from the Taiyaun Space Center, China (TSC). Debris objects in space refer to the collection of defunct objects orbiting the Earth. Examples of debris include non-operational satellites, rocket bodies, and fragments generated from explosions, collisions, or faulty payload assembly.

Not visible in the next 10 days
Identifier
60973, 2024-140LY
Orbit
Decayed
Country
Flag of CNCN / PRC
Related business
Manufacturer
SAST
Mission
Decayed spacecraft
Bus & Motor
Unknown
Mass
Unknown
Launch date (UTC)
2024-08-06 (2 years ago)
Launch vehicle
Unknown
Launch site
Taiyaun Space Center, China (TSC)
Object type
Payload
Rocket body
Debris
Shape & HBR
Unknown shape, 0.1 m
Radar Cross Section
Medium (>0.1 m² and <1 m²)

Expand to show TLE details & history
Last TLE update: 1 year ago

TLE from 1 year ago
0 CZ-6A DEB
1 60973U 24140LY  25022.10257795  .15519421  00000-0  66980-1 0  9991
2 60973  88.9641 330.1891 0041619 153.1435 207.2009 15.77920786 23558
Epoch: 2025-01-22T02:27Z
TLE epoch observation values (Epoch: 2025-01-22T02:27:42.734Z)
Latitude
-0.0001°
Longitude
171.56177°
Altitude
364.493 km
Speed
7.676 km/s
True Right ascension
22h 00m 45s
True Declination
0° 00' 00"
Sunlit
Object was in daylight at epoch
Visualization orbit readout
Latitude
Unknown
Longitude
Unknown
Altitude
Unknown
Speed
Unknown
Apparent Right ascension
Unknown
Apparent Declination
Unknown
Sunlit
N/A
Visualization observer readout
Local Sidereal Time
07:19:22
Azimuth
Unknown
Elevation
Unknown
Doppler factor
Unknown
Orbital elements
Apogee altitude
360.993 km
Perigee altitude
305.13 km
Semi-major axis
6,711.198 km
Eccentricity
0.00416
Inclination
88.9641°
RAAN
330.1891°
Arg. of periapsis
153.1435°
True anomaly
206.9839°
Mean anomaly
207.2009°
Eccentric anomaly
207.0923°
Mean motion
3.94769 °/min
Orbital period
91.19 mins
BSTAR
0.06698
Loading maneuver chart data...
Computing Atmospheric mass density...
Loading historical data...
Loading historical data...
Loading historical data...
Loading historical data...
Loading historical data...
Loading historical data...
Loading historical data...

Documentation

Showing up to 5 results
|